Location: USNO
(38.9242°N, 77.0663°W)
Time: 22:37:19
(UTC-04:00)

Daily predictions for brighter satellites

Satellite Brightness Start Highest point End
(mag) Time Altitude Azimuth Time Altitude Azimuth Time Altitude Azimuth
ALOS 2.5 19:19:19 10° SSE 19:23:48 49° ENE 19:28:18 10° N
Cosmos 2292 Rocket 4.4 19:22:11 10° SSW 19:25:13 38° W 19:28:00 10° N
Cosmos 1271 Rocket 2.9 19:21:45 10° SSW 19:25:30 76° W 19:29:20 10° N
USA 81 4.4 19:22:47 10° N 19:27:49 44° E 19:32:50 10° SSE
Cosmos 2150 Rocket 4.1 19:23:24 10° NNW 19:28:43 62° ENE 19:34:04 10° SSE
COSMO-SKYMED 1 3.1 19:27:19 10° N 19:31:38 64° WNW 19:35:55 10° SSW
USA 229 DEB 4.0 19:25:06 10° NW 19:32:20 84° WSW 19:39:40 10° SSE
USA 229 4.0 19:25:12 10° NW 19:32:25 85° WSW 19:39:46 10° SSE
SAR-Lupe-3 4.5 19:32:33 10° NNE 19:36:09 78° ESE 19:39:43 10° S
Cosmos 2181 Rocket 3.9 19:30:24 10° N 19:36:35 73° E 19:42:41 10° SSE
NOSS 3-1 (A) 4.4 19:29:25 10° NNW 19:36:43 47° NE 19:44:44 10° ESE
Cosmos 841 Rocket 3.5 19:32:17 10° S 19:37:19 60° ESE 19:42:23 10° NNE
Cosmos 1758 Rocket 3.6 19:33:09 10° N 19:37:40 81° E 19:42:09 10° S
Cosmos 1726 Rocket 3.6 19:36:28 10° S 19:40:49 88° W 19:45:11 10° N
Cosmos 1340 Rocket 3.0 19:37:34 10° N 19:41:39 81° W 19:45:44 10° S
FREGAT/IRIS 3.1 19:39:16 10° SE 19:42:06 39° ENE 19:44:58 10° N
Cosmos 389 Rocket 3.5 19:38:46 10° SSW 19:42:10 50° W 19:45:35 10° N
Cosmos 1937 Rocket 3.6 19:37:33 10° NNW 19:42:54 88° WSW 19:48:09 10° SSE
NOSS 3-1 (C) 4.1 19:37:52 10° NNW 19:45:29 67° NE 19:53:53 10° SE
Cosmos 2084 3.9 19:42:57 10° SW 19:47:01 59° NW 19:50:53 10° NNE
Cosmos 2074 Rocket 4.1 19:42:35 10° SSE 19:48:33 52° E 19:54:31 10° NNE
Cosmos 2298 Rocket 4.4 19:48:41 10° NNW 19:54:00 69° WSW 19:59:16 10° S
Cosmos 540 Rocket 3.8 19:49:33 10° S 19:54:19 41° ESE 19:59:05 10° NNE
Cosmos 1943 Rocket 3.2 19:49:30 10° NNW 19:54:52 49° WSW 20:00:15 10° S
Cosmos 1763 Rocket 3.9 19:51:33 10° SSW 19:56:36 66° WNW 20:01:46 10° NNE
HJ-1C 3.7 19:56:27 10° SSE 19:59:38 43° ENE 20:02:51 10° N
Meteor 1-24 Rocket 3.9 19:55:25 10° N 20:01:18 57° ENE 20:06:57 10° SSE
Cosmos 2228 3.4 20:02:11 10° SSW 20:06:31 69° W 20:10:51 10° N
SJ-6B 2.7 20:08:19 10° SSE 20:12:20 77° ENE 20:16:16 10° N
Cosmos 1953 3.9 20:17:35 19° ENE 20:17:35 19° ENE 20:19:19 10° NE
Resurs 01 Rocket 2.1 20:14:19 22° SE 20:16:35 38° ENE 20:20:40 10° N
Nadezhda 3 Rocket 4.4 20:12:44 10° N 20:18:38 41° ENE 20:23:05 17° SE
Cosmos 1812 Rocket 3.7 20:16:03 10° SSE 20:20:20 50° E 20:24:40 10° NNE
Cosmos 1356 Rocket 3.6 20:16:25 10° NNW 20:20:44 77° W 20:25:01 10° S
GP-B 3.5 20:17:03 10° NNE 20:21:14 39° E 20:23:34 22° SE
Meteor 2-8 Rocket 4.4 20:16:49 10° N 20:22:55 64° E 20:28:56 10° SSE
H-2A R/B 3.1 20:20:39 10° S 20:24:19 63° W 20:28:03 10° NNW
Cosmos 2184 Rocket 4.1 20:19:57 10° S 20:26:16 82° W 20:32:39 10° N
Spot 2 Rocket 3.8 20:24:53 26° SE 20:27:21 45° ENE 20:32:08 10° N
Cosmos 1656 Rocket 4.2 20:23:42 10° NNW 20:29:15 60° WSW 20:34:41 10° S
Cosmos 1610 Rocket 4.4 20:26:02 10° S 20:32:22 79° E 20:38:46 10° N
BREEZE-M DEB (TANK) 3.9 20:32:33 10° N 20:32:50 11° N 20:32:50 11° N
Meteor 2-19 Rocket 4.3 20:27:51 10° S 20:33:51 70° E 20:39:53 10° NNE
Cosmos 292 Rocket 3.9 20:33:32 10° S 20:38:10 48° ESE 20:42:51 10° NNE
Milstar 3 Cent rocket 3.3 20:37:58 10° SW 20:41:50 21° S 20:42:11 21° SSE
COSMOS 2406 3.8 20:38:51 10° SW 20:44:27 59° WNW 20:50:08 10° NNE
Cosmos 783 Rocket 4.4 20:40:08 10° S 20:45:17 66° ESE 20:50:26 10° NNE
BREEZE-M (TANK) 3.9 20:34:36 10° WNW 20:46:12 55° SW 20:48:02 31° SSE
MOS 1-B Rocket 3.8 20:43:10 22° SSE 20:47:20 70° ENE 20:52:59 10° N
ISS -3.1 20:44:39 10° SW 20:47:03 46° SW 20:47:03 46° SW
Cosmos 1544 4.3 20:45:25 10° SSW 20:48:51 42° W 20:52:18 10° N
Cosmos 1125 Rocket 3.6 20:49:00 10° NNW 20:54:19 76° WSW 20:57:04 29° S
Cosmos 1356 3.8 20:53:09 10° NNW 20:56:11 61° NW 20:56:11 61° NW
BREEZE-M DEB (TANK) 3.5 20:46:21 10° WSW 20:57:44 73° NNW 20:59:22 40° NE
Cosmos 372 Rocket 4.0 20:53:29 10° NNW 20:58:45 79° WSW 21:00:50 38° S
Cosmos 2369 4.4 20:54:16 10° N 20:59:14 37° NE 20:59:14 37° NE
Envisat 2.9 20:58:00 44° SSE 20:59:40 86° ENE 21:04:46 10° NNW
Cosmos 1674 3.9 20:55:57 10° N 20:58:04 31° N 20:58:04 31° N
Cosmos 1758 3.3 20:59:36 70° SW 20:59:59 80° W 21:04:00 10° N
Meteor 1-21 Rocket 4.1 20:55:55 10° N 21:01:37 67° E 21:02:33 57° SE
ATLAS CENTAUR R/B 3.8 20:57:02 10° NW 21:07:26 43° WSW 21:09:50 25° SSW
Cosmos 962 Rocket 4.4 21:01:36 10° S 21:07:57 84° E 21:14:21 10° N
Cosmos 1939 Rocket 4.2 21:14:51 32° N 21:14:51 32° N 21:17:03 10° N
H-2A R/B 4.4 21:18:39 10° NNE 21:18:39 10° NNE 21:18:43 10° NNE
ATLAS 2AS CENTAUR R/B 3.4 21:11:12 10° NNW 21:18:47 43° NE 21:19:38 42° ENE
Cosmos 2278 4.1 21:28:35 10° NNW 21:33:05 54° N 21:33:05 54° N
Resurs 01 Rocket 4.0 21:51:54 16° WSW 21:53:10 18° W 21:56:12 10° NW
Cosmos 1697 Rocket 4.0 21:51:01 10° NNW 21:54:09 33° N 21:54:09 33° N
FALCON 9 R/B 3.4 21:52:57 10° W 21:55:15 35° WSW 21:55:15 35° WSW
Cosmos 1980 Rocket 4.0 21:52:50 10° N 21:55:07 22° N 21:55:07 22° N
ATLAS 2AS CENTAUR R/B 4.3 23:02:27 10° NW 23:07:04 33° WNW 23:07:04 33° WNW
